Вернуться в каталог

STARLINK-37078

АктивенСвязьVLEO
NORAD 68174·PAYLOAD·🇺🇸 United States

Запущен Mar 14, 2026 с Vandenberg Space Force Base

Loading…

Ближайшие Пролёты (ближайшие 24 часа)

TLE

СвежийSource: CelesTrak SupGP

Эпоха: Sep 14, 2026, 21:30 UTC

1 68174C 26050H   26257.89631944 -.00030358  00000+0 -89716-3 0  2576
2 68174  53.1578 104.1235 0001332  89.1433 312.6816 15.34397906    15

Отслеживайте STARLINK-37078 в реальном времени с AllMySat

Download on the App Store